Regional Weather Roundup
Issued by NWS Sioux Falls, SD

Home | Current Version | Previous Version | Graphics & Text | Print | Product List | Glossary Off
Versions: 1 2 3 4 5 6 7 8 9 10 11 12 13 14 15 16 17 18 19 20 21 22 23 24 25 26 27 28 29 30 31 32 33 34 35 36 37 38 39 40 41 42 43 44 45 46 47 48 49 50

631
ASUS43 KFSD 091710
RWRFSD

WEATHER ROUNDUP FOR SE SOUTH DAKOTA/SW MINNESOTA/NW IOWA
NATIONAL WEATHER SERVICE SIOUX FALLS SD
1100 AM CST FRI DEC 09 2016

NOTE: "FAIR" INDICATES FEW OR NO CLOUDS BELOW 12,000 FEET WITH NO
SIGNIFICANT WEATHER AND OR OBSTRUCTIONS TO VISIBILITY.


SDZ038>040-050-052>070-091800-
SOUTHEAST SOUTH DAKOTA

CITY           SKY/WX    TMP DP  RH WIND       PRES   REMARKS
BROOKINGS      CLOUDY     3  -2  79 NW3       30.53F
CHAMBERLAIN    FLURRIES   8   3  80 E5        30.52S WCI  -1
HURON          CLOUDY     4  -1  80 NE5       30.58F WCI  -5
MADISON        FAIR       5   1  85 NW3       30.54S
MITCHELL       CLOUDY     6   0  76 NE6       30.58F WCI  -4
SIOUX FALLS    CLOUDY     8   2  76 CALM      30.56F
WINNER         LGT SNOW   9   5  84 E12       30.45F FOG     WCI  -6
YANKTON        MOSUNNY    7   1  78 CALM      30.58S
$$

MNZ071-072-080-081-089-090-097-098-091800-
SOUTHWEST MINNESOTA

CITY           SKY/WX    TMP DP  RH WIND       PRES   REMARKS
FAIRMONT       CLOUDY    10   5  80 NW5       30.58F WCI   2
JACKSON        FLURRIES   9   5  85 W6        30.56S WCI  -1
LUVERNE        CLOUDY     9   3  78 NW5       30.57F WCI   0
MARSHALL       SUNNY      6   0  76 NW7       30.59F WCI  -6
MONTEVIDEO     CLOUDY     7   3  85 NW5       30.61F WCI  -2
PIPESTONE      PTSUNNY    7   1  78 N7        30.53S WCI  -5
REDWOOD FALLS  CLOUDY     8   3  80 NW7       30.59F HAZE    WCI  -3
TRACY          MOSUNNY    8   3  80 W3        30.58S
WINDOM         SUNNY      9   3  78 CALM      30.56S
WORTHINGTON    SUNNY      8   4  83 W6        30.55S WCI  -2
$$

IAZ001>003-012>014-020>022-031-032-NEZ013-014-SDZ071-091800-
NORTHWEST IOWA

CITY           SKY/WX    TMP DP  RH WIND       PRES   REMARKS
CHEROKEE       MOSUNNY   10   7  87 W5        30.60S WCI   2
DENISON        MOSUNNY   12   9  85 W3        30.57F
ESTHERVILLE    CLOUDY    10   7  87 W6        30.56F WCI   0
LE MARS        CLOUDY    10   5  79 CALM      30.61F
ORANGE CITY    MOSUNNY    9   7  92 CALM      30.56F
SHELDON        PTSUNNY    9   5  85 NW5       30.56F WCI   0
SIOUX CITY     CLOUDY    14   4  64 CALM      30.62S
SPENCER        MOSUNNY   11   7  84 W8        30.57F WCI  -1
STORM LAKE     PTSUNNY    9   5  85 W8        30.57S WCI  -4
$$

ABBREVIATIONS USED IN REMARKS
   TC - TEMPERATURE IN CELSIUS
  WCI - WIND CHILL INDEX
   HX - HEAT INDEX
  VSB - VISIBILITY





USA.gov is the U.S. government's official web portal to all federal, state and local government web resources and services.